When you browse on this site, cookies collect data to enhance your experience and personalize the content and advertising you see.
Visit our Privacy Policy to learn more. By continuing to use the site, you agree to this use of cookies and data.
  • In Hungary
  • List of Countries
  • For 7 days
  • Water Temperature
  • Satellite Maps
  • Weather Map
  • News
  • Weather Widgets
  • user-avatar
    Login

    Hourly Weather Karmana

    Today, 13 December, Thursday

    Time Temperature Precipitation Wind Pressure Humidity
    00:00 +8°C° 0 mm 3 mps 732 mmHg 50%
    01:00 +8°C° 0 mm 3 mps 732 mmHg 50%
    02:00 +8°C° 0 mm 3 mps 732 mmHg 50%
    03:00 +7°C° 0 mm 3 mps 732 mmHg 50%
    04:00 +7°C° 0 mm 3 mps 732 mmHg 49%
    05:00 +6°C° 0 mm 4 mps 732 mmHg 49%
    06:00 +6°C° 0 mm 4 mps 732 mmHg 49%
    07:00 +6°C° 0 mm 4 mps 732 mmHg 48%
    08:00 +8°C° 0 mm 4 mps 732 mmHg 43%
    09:00 +11°C° 0 mm 4 mps 732 mmHg 38%
    10:00 +13°C° 0 mm 4 mps 732 mmHg 33%
    11:00 +14°C° 0 mm 4 mps 732 mmHg 30%
    12:00 +15°C° 0 mm 4 mps 731 mmHg 26%
    13:00 +17°C° 0 mm 4 mps 731 mmHg 23%
    14:00 +16°C° 0 mm 3 mps 731 mmHg 25%
    15:00 +14°C° 0 mm 3 mps 731 mmHg 28%
    16:00 +14°C° 0 mm 2 mps 731 mmHg 30%
    17:00 +12°C° 0 mm 3 mps 731 mmHg 30%
    18:00 +12°C° 0 mm 3 mps 731 mmHg 31%
    19:00 +12°C° 0 mm 4 mps 731 mmHg 31%
    20:00 +11°C° 0 mm 4 mps 731 mmHg 33%
    21:00 +11°C° 0 mm 4 mps 731 mmHg 34%
    22:00 +10°C° 0 mm 4 mps 731 mmHg 35%
    23:00 +10°C° 0 mm 4 mps 731 mmHg 35%

    Tomorrow, 14 December, Friday

    Time Temperature Precipitation Wind Pressure Humidity
    00:00 +10°C° 0 mm 4 mps 731 mmHg 34%
    01:00 +10°C° 0 mm 4 mps 731 mmHg 34%
    02:00 +10°C° 0 mm 4 mps 731 mmHg 34%
    03:00 +8°C° 0 mm 4 mps 731 mmHg 33%
    04:00 +8°C° 0 mm 4 mps 731 mmHg 33%
    05:00 +8°C° 0 mm 4 mps 731 mmHg 32%
    06:00 +8°C° 0 mm 4 mps 731 mmHg 32%
    07:00 +8°C° 0 mm 4 mps 732 mmHg 32%
    08:00 +11°C° 0 mm 4 mps 732 mmHg 29%
    09:00 +12°C° 0 mm 4 mps 732 mmHg 26%
    10:00 +14°C° 0 mm 4 mps 732 mmHg 23%
    11:00 +15°C° 0 mm 4 mps 732 mmHg 21%
    12:00 +15°C° 0 mm 4 mps 732 mmHg 19%
    13:00 +17°C° 0 mm 4 mps 732 mmHg 17%
    14:00 +16°C° 0 mm 3 mps 732 mmHg 20%
    15:00 +14°C° 0 mm 3 mps 732 mmHg 22%
    16:00 +14°C° 0 mm 2 mps 733 mmHg 24%
    17:00 +13°C° 0 mm 2 mps 733 mmHg 26%
    18:00 +13°C° 0 mm 2 mps 733 mmHg 28%
    19:00 +12°C° 0 mm 1 mps 734 mmHg 29%
    20:00 +11°C° 0 mm 1 mps 734 mmHg 31%
    21:00 +10°C° 0 mm 2 mps 734 mmHg 32%
    22:00 +9°C° 0 mm 2 mps 734 mmHg 33%
    23:00 +9°C° 0 mm 2 mps 734 mmHg 35%

    Day after tomorrow, 15 December, Saturday

    Time Temperature Precipitation Wind Pressure Humidity
    00:00 +8°C° 0 mm 2 mps 734 mmHg 36%
    01:00 +8°C° 0 mm 2 mps 734 mmHg 37%
    02:00 +8°C° 0 mm 2 mps 734 mmHg 38%
    03:00 +7°C° 0 mm 2 mps 734 mmHg 38%
    04:00 +7°C° 0 mm 2 mps 734 mmHg 38%
    05:00 +7°C° 0 mm 2 mps 735 mmHg 37%
    06:00 +7°C° 0 mm 2 mps 735 mmHg 36%
    07:00 +7°C° 0 mm 3 mps 735 mmHg 36%
    08:00 +8°C° 0 mm 3 mps 735 mmHg 33%
    09:00 +10°C° 0 mm 4 mps 735 mmHg 31%
    10:00 +11°C° 0 mm 4 mps 735 mmHg 28%
    11:00 +12°C° 0 mm 4 mps 734 mmHg 29%
    12:00 +12°C° 0 mm 4 mps 734 mmHg 31%
    13:00 +13°C° 0 mm 5 mps 734 mmHg 32%
    14:00 +12°C° 0 mm 4 mps 734 mmHg 36%
    15:00 +11°C° 0 mm 3 mps 734 mmHg 40%
    16:00 +12°C° 0 mm 2 mps 734 mmHg 44%
    17:00 +10°C° 0 mm 2 mps 735 mmHg 48%
    18:00 +9°C° 0 mm 2 mps 735 mmHg 52%
    19:00 +8°C° 0 mm 2 mps 735 mmHg 56%
    20:00 +7°C° 0 mm 2 mps 735 mmHg 59%
    21:00 +7°C° 0 mm 2 mps 736 mmHg 62%
    22:00 +6°C° 0 mm 2 mps 736 mmHg 65%
    23:00 +6°C° 0 mm 2 mps 736 mmHg 68%

    16 December, Sunday

    Time Temperature Precipitation Wind Pressure Humidity
    00:00 +5°C° 0 mm 2 mps 737 mmHg 72%
    01:00 +5°C° 0 mm 2 mps 737 mmHg 75%
    02:00 +5°C° 0 mm 2 mps 737 mmHg 79%
    03:00 +5°C° 0 mm 1 mps 738 mmHg 83%
    04:00 +5°C° 0 mm 1 mps 738 mmHg 87%
    05:00 +5°C° 0 mm 1 mps 738 mmHg 88%
    06:00 +4°C° 0 mm 1 mps 739 mmHg 90%
    07:00 +4°C° 0 mm 1 mps 739 mmHg 91%
    08:00 +5°C° 0 mm 1 mps 739 mmHg 85%
    09:00 +6°C° 0 mm 1 mps 739 mmHg 79%
    10:00 +7°C° 0 mm 1 mps 739 mmHg 72%
    11:00 +8°C° 0 mm 1 mps 739 mmHg 66%
    12:00 +8°C° 0 mm 2 mps 739 mmHg 61%
    13:00 +9°C° 0 mm 2 mps 738 mmHg 55%
    14:00 +8°C° 0 mm 2 mps 738 mmHg 56%
    15:00 +8°C° 0 mm 2 mps 738 mmHg 57%
    16:00 +8°C° 0 mm 3 mps 738 mmHg 57%
    17:00 +7°C° 0 mm 3 mps 738 mmHg 60%
    18:00 +7°C° 0 mm 3 mps 738 mmHg 62%
    19:00 +6°C° 0 mm 2 mps 737 mmHg 64%
    20:00 +6°C° 0 mm 2 mps 737 mmHg 64%
    21:00 +6°C° 0 mm 2 mps 737 mmHg 65%
    22:00 +6°C° 0 mm 2 mps 737 mmHg 65%
    23:00 +6°C° 0 mm 2 mps 737 mmHg 66%

    17 December, Monday

    Time Temperature Precipitation Wind Pressure Humidity
    00:00 +5°C° 0 mm 2 mps 736 mmHg 67%
    01:00 +6°C° 0 mm 1 mps 736 mmHg 69%
    02:00 +6°C° 0 mm 1 mps 736 mmHg 69%
    03:00 +6°C° 0 mm 1 mps 736 mmHg 69%
    04:00 +5°C° 0 mm 1 mps 736 mmHg 70%
    05:00 +5°C° 0 mm 1 mps 736 mmHg 69%
    06:00 +5°C° 0 mm 1 mps 736 mmHg 68%
    07:00 +5°C° 0 mm 1 mps 736 mmHg 68%
    08:00 +7°C° 0 mm 1 mps 736 mmHg 59%
    09:00 +8°C° 0 mm 1 mps 736 mmHg 51%
    10:00 +10°C° 0 mm 1 mps 736 mmHg 43%
    11:00 +10°C° 0 mm 0 mps 736 mmHg 40%
    12:00 +11°C° 0 mm 0 mps 735 mmHg 36%
    13:00 +12°C° 0 mm 0 mps 735 mmHg 33%
    14:00 +11°C° 0 mm 0 mps 735 mmHg 36%
    15:00 +11°C° 0 mm 1 mps 735 mmHg 40%
    16:00 +10°C° 0 mm 1 mps 735 mmHg 43%
    17:00 +10°C° 0 mm 1 mps 735 mmHg 45%
    18:00 +9°C° 0 mm 1 mps 735 mmHg 46%
    19:00 +9°C° 0 mm 1 mps 735 mmHg 48%
    20:00 +7°C° 0 mm 2 mps 735 mmHg 47%
    21:00 +7°C° 0 mm 2 mps 734 mmHg 46%
    22:00 +7°C° 0 mm 2 mps 734 mmHg 45%
    23:00 +7°C° 0 mm 2 mps 734 mmHg 45%

    18 December, Tuesday

    Time Temperature Precipitation Wind Pressure Humidity
    00:00 +7°C° 0 mm 2 mps 734 mmHg 44%
    01:00 +7°C° 0 mm 2 mps 734 mmHg 44%
    02:00 +7°C° 0 mm 2 mps 733 mmHg 43%
    03:00 +7°C° 0 mm 2 mps 733 mmHg 42%
    04:00 +7°C° 0 mm 3 mps 733 mmHg 40%
    05:00 +7°C° 0 mm 3 mps 733 mmHg 40%
    06:00 +7°C° 0 mm 3 mps 733 mmHg 39%
    07:00 +7°C° 0 mm 3 mps 733 mmHg 39%
    08:00 +8°C° 0 mm 3 mps 732 mmHg 36%
    09:00 +10°C° 0 mm 3 mps 732 mmHg 34%
    10:00 +11°C° 0 mm 3 mps 732 mmHg 31%
    11:00 +12°C° 0 mm 3 mps 731 mmHg 30%
    12:00 +12°C° 0 mm 3 mps 731 mmHg 29%
    13:00 +13°C° 0 mm 3 mps 730 mmHg 28%
    14:00 +13°C° 0 mm 3 mps 730 mmHg 31%
    15:00 +12°C° 0 mm 3 mps 730 mmHg 33%
    16:00 +11°C° 0 mm 3 mps 729 mmHg 36%
    17:00 +11°C° 0 mm 3 mps 729 mmHg 36%
    18:00 +11°C° 0 mm 3 mps 729 mmHg 36%
    19:00 +11°C° 0 mm 3 mps 729 mmHg 36%
    20:00 +10°C° 0 mm 3 mps 729 mmHg 36%
    21:00 +10°C° 0 mm 3 mps 729 mmHg 36%
    22:00 +10°C° 0 mm 3 mps 729 mmHg 36%
    23:00 +10°C° 0 mm 3 mps 729 mmHg 36%
    Show more